Radiation Dose at Monitoring Post of Fukushima Daini Nuclear Power Station
Date,Time,MP-1(microSv/h),MP-2(microSv/h),MP-3(microSv/h),MP-4(microSv/h),MP-5(microSv/h),MP-6(microSv/h),MP-7(microSv/h),Wind Direction,Wind Velocity(m/s),Rain
2017/12/01,00:00,0.339,0.215,0.355,0.334,0.315,0.177,0.107,north-northwest,4.6,Yes
2017/12/01,00:10,0.341,0.217,0.355,0.334,0.315,0.177,0.107,north-northwest,4.5,Yes
2017/12/01,00:20,0.341,0.217,0.355,0.333,0.314,0.177,0.106,north-northwest,4.2,Yes
2017/12/01,00:30,0.340,0.217,0.356,0.333,0.315,0.176,0.106,north-northwest,4.3,Yes
2017/12/01,00:40,0.341,0.217,0.355,0.334,0.315,0.178,0.106,north-northwest,4.2,Yes
2017/12/01,00:50,0.342,0.220,0.357,0.334,0.318,0.179,0.109,northwest,3.9,Yes
2017/12/01,01:00,0.345,0.222,0.361,0.336,0.318,0.181,0.112,northwest,3.8,Yes
2017/12/01,01:10,0.345,0.223,0.360,0.338,0.321,0.185,0.114,north-northwest,4.8,Yes
2017/12/01,01:20,0.348,0.224,0.361,0.340,0.321,0.186,0.115,-,CALM,Yes
2017/12/01,01:30,0.349,0.228,0.363,0.342,0.322,0.188,0.117,-,CALM,Yes
2017/12/01,01:40,0.352,0.229,0.364,0.342,0.324,0.190,0.120,-,CALM,Yes
2017/12/01,01:50,0.352,0.231,0.365,0.342,0.326,0.193,0.123,north-northwest,5.1,Yes
2017/12/01,02:00,0.352,0.231,0.364,0.344,0.326,0.193,0.124,north-northwest,5.4,Yes
2017/12/01,02:10,0.353,0.233,0.364,0.343,0.327,0.195,0.124,-,CALM,Yes
2017/12/01,02:20,0.353,0.234,0.366,0.344,0.328,0.195,0.126,-,CALM,Yes
2017/12/01,02:30,0.353,0.234,0.364,0.346,0.330,0.196,0.126,-,CALM,Yes
2017/12/01,02:40,0.355,0.235,0.363,0.345,0.329,0.195,0.127,west-northwest,3.4,Yes
2017/12/01,02:50,0.354,0.236,0.363,0.344,0.329,0.195,0.126,northwest,4.2,Yes
2017/12/01,03:00,0.354,0.235,0.365,0.342,0.326,0.194,0.124,north-northwest,5.1,Yes
2017/12/01,03:10,0.352,0.233,0.363,0.343,0.328,0.194,0.124,north-northwest,4.4,Yes
2017/12/01,03:20,0.352,0.233,0.362,0.343,0.329,0.192,0.122,north-northeast,5.1,Yes
2017/12/01,03:30,0.351,0.232,0.360,0.340,0.325,0.189,0.120,north,5.9,Yes
2017/12/01,03:40,0.349,0.229,0.360,0.339,0.325,0.188,0.120,north-northeast,7.1,Yes
2017/12/01,03:50,0.348,0.227,0.358,0.338,0.323,0.186,0.119,north-northeast,6.8,Yes
2017/12/01,04:00,0.344,0.227,0.355,0.336,0.321,0.184,0.115,north,4.8,Yes
2017/12/01,04:10,0.343,0.224,0.354,0.335,0.320,0.182,0.115,north,6.2,No
2017/12/01,04:20,0.342,0.221,0.352,0.330,0.318,0.181,0.113,north,6.2,No
2017/12/01,04:30,0.340,0.218,0.349,0.329,0.317,0.177,0.110,north,7.1,No
2017/12/01,04:40,0.337,0.217,0.350,0.331,0.315,0.177,0.109,north,8.4,No
2017/12/01,04:50,0.338,0.217,0.347,0.327,0.314,0.174,0.107,north,7.8,No
2017/12/01,05:00,0.334,0.214,0.347,0.326,0.314,0.173,0.106,north-northwest,6.2,No
2017/12/01,05:10,0.335,0.212,0.346,0.326,0.313,0.173,0.105,north,7.0,No
2017/12/01,05:20,0.332,0.212,0.345,0.325,0.310,0.171,0.103,north,6.2,No
2017/12/01,05:30,0.333,0.212,0.343,0.323,0.312,0.170,0.103,north,7.6,No
2017/12/01,05:40,0.333,0.211,0.343,0.322,0.311,0.170,0.103,north,6.8,No
2017/12/01,05:50,0.331,0.212,0.344,0.323,0.309,0.170,0.102,north,6.8,No
2017/12/01,06:00,0.331,0.210,0.344,0.324,0.308,0.169,0.102,north,7.8,No
2017/12/01,06:10,0.332,0.211,0.343,0.322,0.309,0.168,0.101,north,6.0,No
2017/12/01,06:20,0.333,0.211,0.342,0.320,0.310,0.170,0.102,north,6.3,No
2017/12/01,06:30,0.331,0.209,0.344,0.323,0.310,0.168,0.101,north,7.0,No
2017/12/01,06:40,0.330,0.209,0.341,0.323,0.308,0.168,0.101,north,6.4,No
2017/12/01,06:50,0.331,0.209,0.342,0.322,0.309,0.169,0.101,north,6.6,No
2017/12/01,07:00,0.331,0.209,0.342,0.323,0.308,0.168,0.101,north,7.3,No
2017/12/01,07:10,0.332,0.208,0.342,0.323,0.308,0.168,0.101,north,6.4,No
2017/12/01,07:20,0.331,0.210,0.342,0.323,0.309,0.168,0.101,north,6.4,No
2017/12/01,07:30,0.331,0.209,0.341,0.323,0.308,0.169,0.100,north,6.4,No
2017/12/01,07:40,0.331,0.208,0.342,0.321,0.309,0.169,0.102,north,6.5,No
2017/12/01,07:50,0.330,0.209,0.342,0.322,0.308,0.168,0.101,north,6.4,No
2017/12/01,08:00,0.331,0.209,0.342,0.322,0.309,0.168,0.100,north,6.2,No
2017/12/01,08:10,0.332,0.209,0.342,0.321,0.309,0.169,0.100,north,6.6,No
2017/12/01,08:20,0.331,0.210,0.344,0.322,0.309,0.169,0.101,north,7.4,No
2017/12/01,08:30,0.331,0.209,0.343,0.322,0.309,0.170,0.101,north,6.6,No
2017/12/01,08:40,0.330,0.211,0.342,0.322,0.310,0.168,0.100,north,6.4,No
2017/12/01,08:50,0.331,0.210,0.343,0.322,0.309,0.168,0.102,north,6.7,No
2017/12/01,09:00,0.332,0.210,0.344,0.322,0.309,0.169,0.101,north,5.6,No
2017/12/01,09:10,0.332,0.209,0.342,0.322,0.310,0.170,0.101,north,4.8,No
2017/12/01,09:20,0.331,0.210,0.342,0.322,0.311,0.168,0.101,north,6.2,No
2017/12/01,09:30,0.333,0.210,0.343,0.322,0.308,0.169,0.100,north,4.9,No
2017/12/01,09:40,0.332,0.209,0.345,0.323,0.310,0.169,0.101,north,5.9,No
2017/12/01,09:50,0.332,0.210,0.342,0.323,0.310,0.169,0.101,north-northwest,6.2,No
2017/12/01,10:00,0.332,0.210,0.342,0.322,0.309,0.169,0.101,north,5.3,No
2017/12/01,10:10,0.332,0.209,0.342,0.323,0.310,0.169,0.101,north-northwest,4.4,No
2017/12/01,10:20,0.332,0.210,0.343,0.323,0.311,0.170,0.101,north-northwest,4.2,No
2017/12/01,10:30,0.331,0.210,0.344,0.323,0.310,0.169,0.101,north-northwest,6.2,No
2017/12/01,10:40,0.332,0.210,0.343,0.322,0.309,0.169,0.101,north-northwest,6.5,No
2017/12/01,10:50,0.334,0.209,0.346,0.324,0.309,0.169,0.102,north-northwest,4.8,No
2017/12/01,11:00,0.331,0.210,0.343,0.322,0.309,0.169,0.101,north,3.4,No
2017/12/01,11:10,0.332,0.210,0.343,0.321,0.309,0.169,0.101,north,3.7,No
2017/12/01,11:20,0.334,0.210,0.343,0.325,0.310,0.169,0.101,north,3.7,No
2017/12/01,11:30,0.332,0.210,0.345,0.322,0.309,0.170,0.101,north,1.8,No
2017/12/01,11:40,0.333,0.211,0.343,0.321,0.308,0.169,0.101,north-northeast,2.1,No
2017/12/01,11:50,0.333,0.210,0.342,0.323,0.310,0.169,0.100,north-northeast,2.9,No
2017/12/01,12:00,0.331,0.211,0.344,0.323,0.308,0.169,0.100,north-northeast,1.6,No
2017/12/01,12:10,0.331,0.211,0.343,0.322,0.309,0.168,0.101,northeast,2.4,No
2017/12/01,12:20,0.334,0.210,0.343,0.323,0.309,0.169,0.101,north-northeast,2.4,No
2017/12/01,12:30,0.331,0.210,0.344,0.321,0.309,0.169,0.100,northeast,2.7,No
2017/12/01,12:40,0.332,0.209,0.343,0.322,0.310,0.169,0.100,northeast,2.9,No
2017/12/01,12:50,0.331,0.208,0.342,0.322,0.308,0.169,0.100,northeast,2.7,No
2017/12/01,13:00,0.331,0.209,0.344,0.322,0.311,0.170,0.101,northeast,3.2,No
2017/12/01,13:10,0.333,0.210,0.342,0.325,0.310,0.169,0.101,northeast,2.3,No
2017/12/01,13:20,0.333,0.210,0.343,0.322,0.309,0.169,0.101,east-northeast,1.6,No
2017/12/01,13:30,0.331,0.210,0.343,0.323,0.311,0.169,0.101,east-northeast,2.9,No
2017/12/01,13:40,0.332,0.210,0.343,0.323,0.310,0.170,0.101,northeast,2.1,No
2017/12/01,13:50,0.333,0.209,0.343,0.324,0.311,0.170,0.100,east-northeast,1.7,No
2017/12/01,14:00,0.331,0.211,0.345,0.323,0.312,0.169,0.101,northeast,1.6,No
2017/12/01,14:10,0.331,0.211,0.342,0.322,0.309,0.169,0.101,northeast,1.6,No
2017/12/01,14:20,0.334,0.210,0.344,0.323,0.309,0.169,0.101,northeast,1.4,No
2017/12/01,14:30,0.332,0.211,0.344,0.323,0.309,0.168,0.101,north-northeast,2.0,No
2017/12/01,14:40,0.332,0.211,0.344,0.323,0.309,0.168,0.100,northeast,1.9,No
2017/12/01,14:50,0.332,0.210,0.342,0.324,0.312,0.170,0.100,north-northeast,2.6,No
2017/12/01,15:00,0.332,0.212,0.344,0.322,0.310,0.169,0.101,north,0.7,No
2017/12/01,15:10,0.333,0.211,0.343,0.323,0.309,0.169,0.100,-,CALM,No
2017/12/01,15:20,0.333,0.210,0.343,0.324,0.310,0.170,0.101,north-northwest,0.6,No
2017/12/01,15:30,0.332,0.210,0.342,0.323,0.310,0.169,0.100,north-northwest,0.6,No
2017/12/01,15:40,0.332,0.211,0.344,0.323,0.310,0.169,0.100,-,CALM,No
2017/12/01,15:50,0.333,0.210,0.342,0.323,0.308,0.169,0.101,north-northwest,1.0,No
2017/12/01,16:00,0.333,0.210,0.343,0.324,0.311,0.169,0.100,north-northwest,1.0,No
2017/12/01,16:10,0.332,0.211,0.345,0.323,0.309,0.169,0.101,north-northwest,1.0,No
2017/12/01,16:20,0.333,0.211,0.342,0.325,0.310,0.169,0.101,northwest,1.2,No
2017/12/01,16:30,0.332,0.209,0.343,0.325,0.309,0.169,0.100,north-northwest,1.0,No
2017/12/01,16:40,0.332,0.211,0.344,0.323,0.309,0.170,0.101,north,2.0,No
2017/12/01,16:50,0.333,0.211,0.345,0.323,0.309,0.169,0.101,north-northwest,2.4,No
2017/12/01,17:00,0.334,0.209,0.344,0.325,0.309,0.169,0.101,north-northwest,2.6,No
2017/12/01,17:10,0.332,0.210,0.345,0.324,0.309,0.169,0.100,northwest,1.4,No
2017/12/01,17:20,0.332,0.211,0.345,0.324,0.308,0.170,0.100,north-northwest,1.5,No
2017/12/01,17:30,0.335,0.209,0.344,0.322,0.310,0.169,0.101,north,3.7,No
2017/12/01,17:40,0.333,0.210,0.345,0.325,0.310,0.170,0.102,north,4.8,No
2017/12/01,17:50,0.332,0.210,0.344,0.324,0.308,0.170,0.101,north-northwest,4.6,No
2017/12/01,18:00,0.333,0.209,0.346,0.324,0.310,0.170,0.101,north,5.1,No
2017/12/01,18:10,0.333,0.210,0.345,0.324,0.311,0.170,0.101,north-northwest,4.8,Yes
2017/12/01,18:20,0.332,0.210,0.344,0.325,0.311,0.169,0.102,north-northwest,4.8,No
2017/12/01,18:30,0.334,0.211,0.345,0.324,0.309,0.171,0.102,north-northwest,4.5,Yes
2017/12/01,18:40,0.334,0.210,0.346,0.324,0.312,0.170,0.102,north-northwest,3.8,Yes
2017/12/01,18:50,0.334,0.210,0.346,0.326,0.311,0.171,0.103,north-northwest,3.8,Yes
2017/12/01,19:00,0.335,0.213,0.345,0.325,0.310,0.173,0.103,north,4.3,Yes
2017/12/01,19:10,0.335,0.211,0.346,0.325,0.311,0.171,0.103,north-northwest,3.6,Yes
2017/12/01,19:20,0.334,0.211,0.345,0.327,0.312,0.172,0.104,north-northwest,4.0,Yes
2017/12/01,19:30,0.333,0.213,0.345,0.328,0.311,0.174,0.104,north-northwest,3.5,Yes
2017/12/01,19:40,0.335,0.212,0.348,0.326,0.312,0.173,0.103,north,2.8,Yes
2017/12/01,19:50,0.335,0.213,0.347,0.327,0.314,0.173,0.104,north-northwest,2.6,No
2017/12/01,20:00,0.335,0.212,0.347,0.326,0.312,0.172,0.103,north,2.9,No
2017/12/01,20:10,0.333,0.212,0.346,0.325,0.310,0.171,0.102,north,2.6,No
2017/12/01,20:20,0.334,0.212,0.346,0.325,0.311,0.172,0.103,north,4.5,No
2017/12/01,20:30,0.335,0.212,0.346,0.325,0.312,0.172,0.104,north-northwest,5.1,No
2017/12/01,20:40,0.335,0.212,0.346,0.327,0.312,0.172,0.103,north-northwest,4.6,No
2017/12/01,20:50,0.335,0.213,0.345,0.325,0.310,0.171,0.103,north-northwest,4.8,No
2017/12/01,21:00,0.335,0.212,0.347,0.325,0.312,0.172,0.103,north-northwest,5.7,No
2017/12/01,21:10,0.336,0.211,0.346,0.325,0.311,0.171,0.103,north-northwest,5.1,No
2017/12/01,21:20,0.334,0.211,0.345,0.326,0.310,0.171,0.102,north,6.6,No
2017/12/01,21:30,0.334,0.212,0.346,0.326,0.311,0.171,0.102,north,6.0,No
2017/12/01,21:40,0.335,0.211,0.345,0.325,0.312,0.171,0.102,north,5.9,No
2017/12/01,21:50,0.334,0.212,0.345,0.326,0.309,0.171,0.102,north,6.6,No
2017/12/01,22:00,0.334,0.212,0.345,0.326,0.309,0.171,0.102,north,7.3,No
2017/12/01,22:10,0.335,0.212,0.346,0.325,0.311,0.170,0.102,north,6.4,No
2017/12/01,22:20,0.333,0.212,0.347,0.324,0.309,0.170,0.102,north,6.2,No
2017/12/01,22:30,0.333,0.211,0.344,0.325,0.310,0.171,0.102,north,7.7,No
2017/12/01,22:40,0.333,0.210,0.345,0.325,0.309,0.170,0.101,north,6.2,No
2017/12/01,22:50,0.334,0.211,0.345,0.324,0.310,0.170,0.102,north,6.5,No
2017/12/01,23:00,0.335,0.211,0.346,0.324,0.310,0.171,0.101,north,6.6,No
2017/12/01,23:10,0.333,0.210,0.345,0.325,0.310,0.170,0.101,north-northwest,6.5,No
2017/12/01,23:20,0.333,0.211,0.345,0.324,0.310,0.170,0.101,north,7.0,No
2017/12/01,23:30,0.333,0.212,0.345,0.325,0.310,0.170,0.102,north,8.5,No
2017/12/01,23:40,0.334,0.211,0.344,0.324,0.310,0.171,0.102,north-northwest,7.0,No
2017/12/01,23:50,0.335,0.212,0.345,0.325,0.309,0.170,0.102,north,7.9,No
